Simultaneous Nadir Overpasses (SNOs) Predictions

Prediction of SNOs between AQUA and METOP-A Satellite Orbit:

Table of predicted SNOs for the next 14.0 days since TLE Epoch: 1/13/2012
Index Date Time (AQUA) AQUA Lat,Lon METOP-A Lat,Lon Distance(km) Time Diff (sec)
1 01/15/2012 17:40:17 -73.61, 89.47 -73.52, 88.68 26.87 72
2 01/15/2012 18:29:48 73.79,-103.29 73.81,-103.29 2.26 9
3 01/15/2012 19:19:15 -73.87, 64.19 -73.85, 64.12 3.00 65
4 01/15/2012 20:09:41 76.78,-136.36 76.68,-119.94 417.77 19
5 01/18/2012 13:14:34 -73.75, 155.60 -73.76, 155.64 1.36 68
6 01/18/2012 14:04:02 73.78, -36.83 73.80, -36.93 3.55 3
7 01/18/2012 14:53:31 -73.96, 130.43 -73.99, 130.86 13.68 72
8 01/21/2012 07:58:31 71.09, 59.36 71.09, 49.36 360.11 30
9 01/21/2012 08:48:47 -73.77,-137.99 -73.74,-137.99 3.00 56
10 01/21/2012 09:38:15 73.80, 29.58 73.83, 29.55 2.87 14
11 01/21/2012 10:27:52 -74.39,-164.12 -74.41,-161.66 73.53 67
12 01/24/2012 03:32:58 71.84, 124.57 71.79, 117.00 262.45 45
13 01/24/2012 04:23:00 -73.76, -71.52 -73.77, -71.52 0.79 44
14 01/24/2012 05:12:29 73.85, 95.92 73.85, 96.00 2.63 25
15 01/24/2012 06:02:15 -74.89, -98.92 -74.87, -94.01 142.24 60
16 01/26/2012 23:07:22 72.46,-170.08 72.42,-175.38 177.85 56
17 01/26/2012 23:57:13 -73.79, -5.12 -73.79, -5.07 1.58 32
18 01/27/2012 00:46:41 73.83, 162.43 73.82, 162.32 3.50 39




NCC Satellite Simultaneous Nadir Overpasses (SNOs) Prediction Service
